Regional Weather Roundup
Issued by NWS

Home | Current Version | Previous Version | Text Only | Print | Product List | Glossary Off
Versions: 1 2 3 4 5 6 7 8 9 10 11 12 13 14 15 16 17 18 19 20 21 22 23 24 25 26 27 28 29 30 31 32 33 34 35 36 37 38 39 40 41 42 43 44 45 46 47 48 49 50

000
ASUS43 KIND 270709
RWRIN

WEATHER ROUNDUP FOR INDIANA
NATIONAL WEATHER SERVICE INDIANAPOLIS IN
300 AM EDT WED JUL 27 2016

NOTE: "FAIR" INDICATES FEW OR NO CLOUDS BELOW 12,000 FEET WITH NO
SIGNIFICANT WEATHER AND/OR OBSTRUCTIONS TO VISIBILITY.

* - STATION DOES NOT REPORT WEATHER SUCH AS PRECIPITATION OR FOG.

+ - STATION NOT QUALITY CONTROLLED BY THE NATIONAL WEATHER SERVICE.
    USE DATA WITH CAUTION...ESPECIALLY DEWPOINT AND RELATIVE
    HUMIDITY OBSERVATIONS.

INZ001>003-010>013-019-020-270800-
NORTHWEST INDIANA

CITY           SKY/WX    TMP DP  RH WIND       PRES   REMARKS
GARY /AIRPORT/ CLEAR     67  67 100 CALM      30.00F
KNOX *+        CLEAR     63  63 100 SW3       30.00F
LA PORTE +     CLEAR    N/A N/A N/A CALM      30.01S
MICHIGAN CITY+   N/A     63  63 100 CALM      30.01S FOG
MONTICELLO +   CLEAR     67  64  87 CALM      30.00F
RENSSELAER +   CLEAR     66  66 100 CALM      30.01F FOG
VALPARAISO     CLEAR     66  64  93 CALM      30.01F

$$

LMZ046-743>745-270800-
SOUTHERN LAKE MICHIGAN

STATION/POSITION TIME  TEMP    WIND        PRES    WAVE
                       AIR SEA DIR/SP/G            HT
                 (UTC) (F)     (DEG/KT/KT) (MB)    (FT)
BURNS HARBOR     0601   72     190/  4/  7 1016.3F
MICHIGAN CITY    0600   71     110/  2/  2   N/A
5NW MICH CITY    0700   74 77  180/  4/  6   N/A     0

$$

INZ004-005-014>016-021>024-270800-
NORTH CENTRAL INDIANA

CITY           SKY/WX    TMP DP  RH WIND       PRES   REMARKS
GOSHEN         CLEAR     66  63  90 CALM      30.00F
LOGANSPORT +   CLEAR     63  63 100 CALM      30.01F
PERU/GRISSOM   CLEAR     66  64  94 CALM      29.99F
ROCHESTER +    CLEAR     68  68 100 CALM      30.01F
SOUTH BEND     CLEAR     64  62  93 CALM      30.01F
WARSAW +       CLEAR     63  63 100 CALM      30.01F

$$

INZ006>009-017-018-025>027-270800-
NORTHEAST INDIANA

CITY           SKY/WX    TMP DP  RH WIND       PRES   REMARKS
ANGOLA *+        N/A     63  52  67 CALM      30.01F VSB 3/4
AUBURN +       CLEAR     66  61  82 CALM      30.01F
FORT WAYNE     PTCLDY    66  62  87 NW3       30.00F
HUNTINGTON +   CLEAR     66  65  96 CALM      30.00F

$$

INZ028-029-035-036-043>045-051>053-270800-
WEST CENTRAL INDIANA

CITY           SKY/WX    TMP DP  RH WIND       PRES   REMARKS
CRAWFORDSVL +  CLEAR     62  62 100 CALM      30.00F FOG
GREENCASTLE +  CLEAR     68  68 100 CALM      30.01F
LAFAYETTE      CLEAR     66  66 100 CALM      30.00F
TERRE HAUTE    PTCLDY    69  67  93 N3        30.00S

$$

INZ030>032-037>040-046>048-054>057-064-065-270800-
CENTRAL INDIANA

CITY           SKY/WX    TMP DP  RH WIND       PRES   REMARKS
INDIANAPOLIS   PTCLDY    72  66  81 CALM      30.01F
-EAGLE CREEK   CLEAR     71  68  90 CALM      30.00F
KOKOMO *+      CLEAR     64  57  77 CALM      30.01F
MARION +       CLEAR     63  62  99 CALM      30.01F
MT COMFORT *+  PTCLDY    64  64 100 CALM      30.01F
SHELBYVILLE    PTCLDY    69  66  90 CALM      30.00F FOG
ZIONSVILLE +   CLEAR     64  64  99 CALM      30.02F FOG

$$

INZ033-034-041-042-049-050-058-059-270800-
EAST CENTRAL INDIANA

CITY           SKY/WX    TMP DP  RH WIND       PRES   REMARKS
MUNCIE         CLEAR     68  65  90 CALM      30.01F

$$

INZ060-061-067>069-081>083-085>088-270800-
SOUTHWEST INDIANA

CITY           SKY/WX    TMP DP  RH WIND       PRES   REMARKS
EVANSVILLE     CLEAR     77  74  90 CALM      29.98S
HUNTINGBURG *+ CLEAR     73  70  88 CALM      29.98F
WASHINGTON +   PTCLDY    73  73 100 MISG      29.98S

$$

INZ062-063-066-070>080-084-089>092-270800-
SOUTH CENTRAL AND SOUTHEAST INDIANA

CITY           SKY/WX    TMP DP  RH WIND       PRES   REMARKS
BLOOMINGTON    CLOUDY    70  68  93 CALM      30.00F FOG
MADISON *+     CLOUDY    73  72  94 CALM      30.02S VSB 1/2

$$




USA.gov is the U.S. government's official web portal to all federal, state and local government web resources and services.